Torna al catalogo

COSMOS 1285 DEB

LostHEO
NORAD 28560·DEBRIS·🇷🇺 Russia

Lanciato Aug 4, 1981 da Plesetsk Cosmodrome

Loading…

Prossimi Passaggi (prossime 24 ore)

TLE

ObsoletoSource: Space-Track

Epoca: Jun 5, 2011, 08:27 UTC

1 28560U 81071U   11156.35219965  .00000702  00000-0  00000+0 0  9990
2 28560  66.4716  77.9399 6001060 127.4715   6.6158  1.97959616 57783

Traccia COSMOS 1285 DEB in tempo reale con AllMySat

Download on the App Store